Regional Weather Roundup
Issued by NWS

Home | Current Version | Previous Version | Graphics & Text | Print | Product List | Glossary On
Versions: 1 2 3 4 5 6 7 8 9 10 11 12 13 14 15 16 17 18 19 20 21 22 23 24 25 26 27 28 29 30 31 32 33 34 35 36 37 38 39 40 41 42 43 44 45 46 47 48 49 50
000
ASUS43 KBIS 290210
RWRND

NORTH DAKOTA REGIONAL WEATHER ROUNDUP
NATIONAL WEATHER SERVICE BISMARCK ND
800 PM CST SUN DEC 28 2014

NOTE: "FAIR" INDICATES FEW OR NO CLOUDS BELOW 12,000 FEET WITH NO
SIGNIFICANT WEATHER AND/OR OBSTRUCTIONS TO VISIBILITY.


NDZ001>003-009>011-017-290300-
NORTHWEST NORTH DAKOTA

CITY           SKY/WX    TMP DP  RH WIND       PRES   REMARKS
WILLISTON      CLOUDY     5  -3  69 N13       30.38R WCI -12
MINOT          MOCLDY    -6 -11  79 NW9       30.39R WCI -23
MINOT AFB      MOCLDY    -8 -12  83 NW7       30.40R WCI -22
$$

NDZ018>021-031>035-040>046-290300-
SOUTHWEST NORTH DAKOTA

CITY           SKY/WX    TMP DP  RH WIND       PRES   REMARKS
BISMARCK       CLOUDY     3  -2  79 NE12      30.36R WCI -13
DICKINSON      LGT SNOW   8   3  80 NE15      30.22R WCI  -9
GARRISON         N/A      1  -4  79 NE10      30.35R WCI -15
HETTINGER ARPT LGT SNOW  12   7  80 NE14      30.19R WCI  -3
$$

NDZ004>008-012>016-024-026-027-054-290300-
NORTHEAST NORTH DAKOTA

CITY           SKY/WX    TMP DP  RH WIND       PRES   REMARKS
GRAND FORKS    CLEAR     -9 -13  83 NW5       30.46R WCI -20
GRND FRKS AFB  CLEAR     -8 -11  84 NW5       30.46R WCI -19
DEVILS LAKE    PTCLDY    -8 -15  71 CALM      30.39R
$$

NDZ022-023-025-028>030-036>039-047>053-290300-
SOUTHEAST NORTH DAKOTA

CITY           SKY/WX    TMP DP  RH WIND       PRES   REMARKS
FARGO          CLEAR     -2  -9  72 N10       30.43R WCI -19
JAMESTOWN      CLOUDY    -1  -7  75 N12       30.37R WCI -18
$$



USA.gov is the U.S. government's official web portal to all federal, state and local government web resources and services.